EW9536 Weather Reports


Display with metric or nautical units.
time (UTC)temp
F
wind
direction
speed
MPH
gust
MPH
rain 1hr
in
rain 24hr
in
rain mn
in
humidity
%
barometer
mb
20260506163518 70 248 6.0 12.0 0.00 0.01 0.01 44 1010.0
20260506162517 71 270 7.0 13.0 0.00 0.01 0.01 42 1010.0
20260506161517 70 270 4.0 10.0 0.00 0.01 0.01 43 1009.9
20260506160517 70 270 6.0 12.0 0.00 0.01 0.01 41 1010.0
20260506155517 70 248 6.0 12.0 0.00 0.01 0.01 44 1010.0
20260506154517 70 293 5.0 12.0 0.00 0.01 0.01 44 1010.1
20260506153557 69 270 7.0 11.0 0.00 0.01 0.01 43 1010.1
20260506152517 69 270 6.0 14.0 0.00 0.01 0.01 45 1010.1
20260506151517 69 270 8.0 15.0 0.00 0.01 0.01 44 1010.2
20260506150517 70 293 10.0 18.0 0.00 0.01 0.01 44 1010.3
20260506145537 70 270 7.0 12.0 0.00 0.01 0.01 44 1010.4
20260506144517 70 270 5.0 12.0 0.00 0.01 0.01 43 1010.5
20260506143517 69 270 6.0 13.0 0.00 0.01 0.01 46 1010.6
20260506142517 68 270 4.0 10.0 0.00 0.01 0.01 47 1010.5
20260506141537 69 293 8.0 15.0 0.00 0.01 0.01 44 1010.7
20260506140516 69 293 7.0 13.0 0.00 0.01 0.01 45 1010.7
20260506135516 69 270 4.0 8.0 0.00 0.01 0.01 46 1010.8
20260506134517 69 248 6.0 11.0 0.00 0.01 0.01 45 1010.9
20260506133516 69 315 5.0 10.0 0.00 0.01 0.01 47 1011.1
20260506132517 69 293 5.0 14.0 0.00 0.01 0.01 46 1011.3
20260506131517 69 315 5.0 11.0 0.00 0.01 0.01 46 1011.3
20260506130516 68 270 4.0 12.0 0.00 0.01 0.01 47 1011.3
20260506125517 68 270 6.0 11.0 0.00 0.01 0.01 49 1011.5
20260506124517 67 315 7.0 16.0 0.00 0.01 0.01 50 1011.5
20260506123516 68 248 8.0 17.0 0.00 0.01 0.01 48 1011.6
20260506122517 67 293 7.0 13.0 0.00 0.01 0.01 49 1011.6
20260506121517 68 270 5.0 11.0 0.00 0.01 0.01 48 1011.7
20260506120517 67 270 5.0 13.0 0.00 0.01 0.01 46 1011.6
20260506115516 67 248 7.0 12.0 0.00 0.01 0.01 44 1011.7
20260506114516 66 293 7.0 16.0 0.00 0.01 0.01 50 1011.6
20260506113517 66 270 5.0 12.0 0.00 0.01 0.01 50 1011.7
20260506112516 66 338 6.0 12.0 0.00 0.01 0.01 50 1011.9
20260506111516 65 338 5.0 11.0 0.00 0.01 0.01 52 1011.9
20260506105516 65 293 6.0 11.0 0.00 0.01 0.01 54 1012.0
20260506104516 65 293 6.0 11.0 0.00 0.01 0.01 52 1012.1
20260506103517 65 293 7.0 13.0 0.00 0.01 0.01 55 1012.1
20260506102538 64 338 5.0 11.0 0.00 0.01 0.01 56 1012.2
20260506101518 64 293 5.0 12.0 0.00 0.01 0.01 55 1012.2
20260506100518 63 293 7.0 12.0 0.00 0.01 0.01 55 1012.2
20260506095538 62 293 4.0 9.0 0.00 0.01 0.01 56 1012.2
20260506094518 62 270 6.0 11.0 0.00 0.01 0.01 57 1012.4
20260506093518 62 270 3.0 11.0 0.00 0.01 0.01 58 1012.5
20260506092518 61 293 6.0 11.0 0.00 0.01 0.01 60 1012.5
20260506091518 60 293 7.0 15.0 0.00 0.01 0.01 61 1012.4
20260506090518 60 315 7.0 16.0 0.00 0.01 0.01 63 1012.4
20260506085518 59 293 9.0 14.0 0.00 0.01 0.01 63 1012.3
20260506084516 59 293 9.0 16.0 0.00 0.01 0.01 63 1012.2
20260506083539 59 293 8.0 18.0 0.00 0.01 0.01 65 1012.1
20260506082518 58 315 10.0 17.0 0.00 0.01 0.01 66 1012.0
20260506081518 58 293 8.0 17.0 0.00 0.01 0.01 67 1012.0
20260506080518 57 315 8.0 16.0 0.00 0.01 0.01 68 1012.0
20260506073518 55 315 6.0 10.0 0.00 0.01 0.01 73 1012.0
20260506072518 54 293 6.0 11.0 0.00 0.01 0.01 74 1012.0
20260506071518 54 293 6.0 14.0 0.00 0.01 0.01 75 1012.1
20260506070538 53 315 8.0 14.0 0.00 0.01 0.01 76 1012.1
20260506061518 51 45 2.0 4.0 0.00 0.01 0.01 83 1011.9
20260506060517 49 225 1.0 2.0 0.00 0.01 0.01 88 1011.8
20260506050517 45 203 1.0 2.0 0.00 0.01 0.01 90 1011.1
20260506044518 45 0.0 1.0 0.00 0.01 0.01 91 1010.9
20260506043518 44 248 1.0 2.0 0.00 0.01 0.01 91 1010.8
20260506042518 44 248 1.0 2.0 0.00 0.01 0.01 91 1010.7
20260506041517 44 270 2.0 5.0 0.00 0.01 0.01 92 1010.5
20260506040517 44 293 1.0 3.0 0.00 0.01 0.01 92 1010.5
20260506035518 44 248 1.0 2.0 0.00 0.01 0.01 91 1010.4
20260506034538 44 293 2.0 3.0 0.00 0.01 0.01 91 1010.5
20260506033518 44 293 3.0 4.0 0.00 0.01 0.01 92 1010.6
20260506032517 45 315 1.0 3.0 0.00 0.01 0.01 92 1010.5
20260506031518 45 203 1.0 2.0 0.00 0.01 0.01 92 1010.6
20260506030538 45 315 2.0 4.0 0.00 0.01 0.01 94 1010.6
20260506025517 44 315 2.0 4.0 0.00 0.01 0.01 93 1010.5
20260506024537 44 225 1.0 4.0 0.00 0.01 0.01 93 1010.6
20260506023517 44 180 1.0 2.0 0.01 0.01 0.01 92 1010.7
20260506022517 45 270 1.0 2.0 0.01 0.02 0.01 92 1010.7
20260506021517 45 0.0 2.0 0.01 0.02 0.01 92 1010.7
20260506020518 45 293 1.0 2.0 0.01 0.02 0.01 93 1010.6
20260506015538 45 0.0 2.0 0.01 0.02 0.01 93 1010.6
20260506014517 45 180 2.0 4.0 0.01 0.02 0.01 92 1010.7
20260506013517 45 203 2.0 4.0 0.00 0.01 0.00 91 1010.6
20260506012518 46 315 1.0 2.0 0.00 0.01 0.00 92 1010.5
20260506011517 46 270 2.0 4.0 0.00 0.01 0.00 92 1010.6
20260506010517 46 248 1.0 3.0 0.00 0.01 0.00 92 1010.7
20260506005517 47 0.0 1.0 0.00 0.01 0.00 90 1010.9
20260506004517 47 293 1.0 2.0 0.00 0.01 0.00 91 1011.0
20260506003517 48 293 1.0 2.0 0.00 0.01 0.00 92 1010.9
20260506002537 48 0.0 2.0 0.00 0.01 0.00 92 1010.9
20260506001517 48 0.0 1.0 0.00 0.01 0.00 91 1011.1
20260506000517 48 338 1.0 2.0 0.00 0.01 0.00 92 1011.2
20260505235517 49 293 1.0 2.0 0.00 0.01 0.01 92 1011.2
20260505234518 49 225 1.0 2.0 0.00 0.01 0.01 91 1011.2
20260505233518 49 293 2.0 4.0 0.00 0.01 0.01 92 1011.3
20260505232518 50 248 1.0 2.0 0.00 0.01 0.01 91 1011.2
20260505231518 50 225 1.0 3.0 0.00 0.01 0.01 90 1011.0
20260505230518 50 293 1.0 3.0 0.00 0.01 0.01 91 1011.0
20260505225517 51 270 3.0 6.0 0.00 0.01 0.01 90 1011.0
20260505224537 51 180 1.0 3.0 0.00 0.01 0.01 90 1010.9
20260505223518 52 0.0 2.0 0.00 0.01 0.01 89 1011.1
20260505222517 52 180 1.0 2.0 0.00 0.01 0.01 90 1011.2
20260505221517 52 135 2.0 3.0 0.00 0.01 0.01 89 1011.1
20260505220518 52 135 1.0 2.0 0.00 0.01 0.01 89 1011.4
20260505215518 52 0.0 2.0 0.00 0.01 0.01 89 1011.7
20260505214538 53 248 2.0 3.0 0.00 0.01 0.01 89 1011.6
20260505213518 53 293 2.0 3.0 0.00 0.01 0.01 89 1011.6
20260505212517 53 270 1.0 2.0 0.00 0.01 0.01 88 1011.7
20260505211518 53 270 2.0 4.0 0.00 0.01 0.01 88 1011.7
20260505210537 53 293 1.0 3.0 0.00 0.01 0.01 88 1011.5
20260505205537 54 0.0 0.0 0.00 0.01 0.01 87 1011.5
20260505204517 54 0 1.0 3.0 0.00 0.01 0.01 87 1011.4
20260505203517 54 225 2.0 5.0 0.00 0.01 0.01 87 1011.2
20260505202517 55 0.0 1.0 0.00 0.01 0.01 87 1011.0
20260505201517 55 338 1.0 3.0 0.00 0.01 0.01 87 1011.2
20260505200537 55 203 1.0 4.0 0.00 0.01 0.01 87 1010.8
20260505195517 55 203 1.0 3.0 0.00 0.01 0.01 87 1010.5
20260505194517 55 0.0 1.0 0.00 0.01 0.01 85 1010.4
20260505193517 56 0.0 3.0 0.00 0.01 0.01 85 1010.3
20260505192517 56 248 1.0 3.0 0.00 0.01 0.01 83 1010.1
20260505191517 57 45 1.0 2.0 0.00 0.02 0.01 81 1009.9
20260505190517 57 45 2.0 3.0 0.00 0.02 0.01 80 1009.7
20260505185517 57 45 3.0 5.0 0.00 0.05 0.01 81 1009.8
20260505184517 57 45 4.0 9.0 0.00 0.08 0.01 82 1009.5
20260505183517 57 45 3.0 6.0 0.00 0.12 0.01 84 1009.4
20260505182517 57 68 3.0 5.0 0.00 0.17 0.01 84 1009.4
20260505181516 57 90 3.0 7.0 0.00 0.17 0.01 83 1009.5
20260505180517 57 113 3.0 6.0 0.00 0.17 0.01 83 1009.6
20260505175538 58 68 2.0 4.0 0.00 0.17 0.01 81 1009.6
20260505174517 58 113 3.0 6.0 0.00 0.17 0.01 80 1009.6
20260505173557 58 113 2.0 7.0 0.00 0.17 0.01 81 1009.6
20260505172517 58 113 4.0 8.0 0.00 0.17 0.01 81 1009.5
20260505171517 58 90 4.0 8.0 0.00 0.17 0.01 81 1009.5
20260505170517 58 90 5.0 9.0 0.00 0.17 0.01 81 1009.5
20260505165537 58 135 7.0 11.0 0.00 0.17 0.01 80 1009.5
20260505164516 58 113 7.0 12.0 0.00 0.17 0.01 81 1009.5